www.pogodaiklimat.ru

Погода и климат >> Архив погоды >> Мексика >> Сан-Луис-Потоси


ПОГОДА в Сан-Луис-Потоси

  • Прогноз погоды в Сан-Луис-Потоси
  • Монитор погоды в Сан-Луис-Потоси

АРХИВ ПОГОДЫ в Сан-Луис-Потоси

Время (UTC), дата Ветер
(напр.,м/с)
 
Видим.   Явления Облачность Т
(С)
Тd
(С)
f
(%)
Тe
(С)
Тes
(С)
Комфортность P
(гПа)
Po
(гПа)
Тmin
(С)
Tmax
(С)
R
(мм)
R24
(мм)
S
(см)
00 15.09 В 2
{2}
10 км мгла {туман} 5/5 720 м
[Sc]
+21.5 +11.7 54 +24 +24 комфорт 1012.2 817.0 +13.3 +25.3
03 15.09 В 1
{1}
8000 м мгла {туман} ясно +17.6 +12.0 70 +19 +19 1012.4 817.6
06 15.09 В 1 6000 м мгла {туман} 3/3 630 м
[Sc]
+15.4 +12.5 83 +16 +16 1014.6 818.8 +25.3
12 15.09 штиль 0 6000 м ясно +11.3 -2.1 39 +11 +11 1016.6 817.4 +11.0 +25.3
15 15.09 ЮВ 1
{1}
10 км мгла 3/3 720 м
[Sc]
+20.0 +9.4 50 +22 +27 комфорт 1017.7 817.8
18 15.09 ЮВ 3
{3}
12 км мгла {туман} 5/5 840 м
[Cu med, cong]
+23.6 -2.8 17 +22 +30 комфорт 1016.1 817.7 +10.9 +24.5
21 15.09 ЮВ 2
{2}
12 км 3/3 840 м
[Cu med, cong]
+27.0 -4.0 13 +24 +34 комфорт 1011.5 815.0
00 16.09 В 2
{2}
12 км 1/1 800 м
[Cu med, cong]
+23.2 +5.3 31 +23 +24 комфорт 1007.8 814.7 +10.9 +28.2
15 16.09 СВ 1
{1}
10 км мгла {туман} 4/4 720 м
[Sc diur, vesp]
+19.6 +10.6 56 +22 +26 комфорт 1017.1 818.0
18 16.09 ЮВ 2
{2}
12 км мгла {туман} 3/3 800 м
[Cu med, cong]
+24.6 +9.5 38 +25 +38 комфорт 1015.4 817.4 +11.9 +24.8
21 16.09 ЮВ 2
{2}
12 км мгла {туман} 9/9 840 м
[Sc]
+26.3 +8.3 32 +26 +28 жарко 1011.9 816.2
00 17.09 ЮВ 2
{2}
10 км мгла {туман} ясно +23.7 +8.0 37 +24 +25 комфорт 1011.3 817.5 +11.9 +29.0
03 17.09 В 2
{2}
8000 м ясно +20.1 +10.5 54 +22 +22 комфорт 1008.4 815.9
06 17.09 ЮВ 2 8000 м мгла {туман} ясно +16.9 +14.0 83 +17 +17 1014.0 816.7 +29.0
12 17.09 штиль 0 8000 м ясно +12.6 +10.8 89 +12 +12 1014.0 816.2 +12.5 +29.0
15 17.09 В 2
{2}
12 км мгла {туман} ясно +20.0 +8.2 47 +22 +28 комфорт 1016.2 817.3
21 17.09 В 3
{3}
12 км 1/1 840 м
[Cu med, cong]
+29.2 -1.0 14 +26 +36 жарко 1011.1 816.1
00 18.09 В 2
{2}
12 км мгла {туман} ясно +24.1 +3.5 26 +23 +24 комфорт 1006.0 813.9 +12.1 +29.4
03 18.09 ЮВ 3
{1}
6000 м мгла {туман} ясно +19.9 +13.4 66 +22 +22 комфорт 1006.5 815.0
12 18.09 штиль 0 8000 м ясно +13.3 +11.6 89 +13 +13 1013.2 815.9 +13.3 +29.4
15 18.09 В 1
{1}
10 км мгла {туман} 6/6 720 м
[Sc]
+20.8 +10.2 51 +24 +26 комфорт 1015.1 816.8
18 18.09 ЮЗ 1
{1}
10 км мгла {туман} 5/5 800 м
[Cu med, cong]
+27.5 +9.6 33 +28 +39 жарко 1013.7 816.7 +12.5 +27.4
21 18.09 СВ 1
{1}
12 км мгла {туман} 5/5 840 м
[Sc diur, vesp]
+28.8 +2.7 19 +27 +34 жарко 1008.1 814.1
00 19.09 В 2
{1}
12 км мгла {туман} 1/1 870 м
[Cu hum]
+25.3 -17.8 5 +22 +22 комфорт 1004.6 813.1 +12.5 +30.7
03 19.09 В 2
{2}
6000 м мгла {туман} ясно +20.7 +15.6 73 +24 +24 комфорт 1005.8 814.9
06 19.09 ЮВ 3 6000 м мгла {туман} 4/4 700 м
[Sc]
+18.5 +11.0 62 +19 +19 1008.0 815.9 +30.7
15 19.09 С 1
{1}
12 км мгла {туман} ясно +21.7 +13.6 60 +24 +31 комфорт 1012.9 815.7
18 19.09 ЮВ 1
{1}
12 км мгла {туман} 5/5 800 м
[Cu med, cong]
+27.3 +8.3 30 +27 +38 жарко 1011.5 815.4 +13.5 +27.5
21 19.09 ЮВ 2
{2}
12 км 3/3 840 м
[Cu med, cong]
+30.1 +1.4 16 +28 +37 жарко 1006.2 812.9
00 20.09 СВ 2
{2}
10 км мгла {туман} 9/9 800 м
[St]
+20.6 +8.0 44 +22 +23 комфорт 1004.9 813.3 +13.5 +30.5
03 20.09 СВ 1
{3}
6000 м мгла {дождь} 9/9 630 м
[St]
+17.4 +15.0 86 +18 +18 1005.8 814.2 5
12 20.09 штиль 0 8000 м ясно +14.8 +15 +15 1012.1 814.9 +14.6 +30.5
15 20.09 СВ 1
{1}
10 км мгла {туман} 10/10 700 м
[St]
+18.8 +11.8 64 +21 +21 комфорт 1013.8 815.9
18 20.09 В 1
{1}
12 км мгла {туман} 8/8 750 м
[Sc]
+25.1 +10.6 40 +26 +30 жарко 1012.4 815.7 +13.5 +25.2
21 20.09 В 1 12 км мгла {туман} 5/5 800 м
[Sc]
+26.4 +4.7 25 +26 +33 жарко 1008.6 814.0
00 21.09
{03}
{туман} н/о 1006.9 +13.5 +27.1 8
03 21.09 ЮВ 2
{2}
8000 м {туман} ясно +18.4 +14.5 78 +19 +19 1008.7 815.2
12 21.09 С 1
{1}
8000 м 10/10 630 м
[St]
+13.7 +10.8 83 +14 +14 1015.0 816.7 +12.5 +27.1
15 21.09 В 2
{2}
10 км мгла {туман} 3/3 720 м
[Cu hum]
+19.6 +10.6 56 +21 +25 комфорт 1016.6 817.6
18 21.09 В 2
{2}
12 км мгла {туман} 3/3 800 м
[Cu med, cong]
+24.0 +5.5 30 +24 +36 комфорт 1015.0 817.2 +12.5 +24.8
21 21.09 В 2
{2}
12 км мгла {туман} 3/3 840 м
[Cu med, cong]
+27.6 +2.2 19 +26 +35 жарко 1010.8 815.7

 

Местоположение метеостанции Сан-Луис-Потоси (Мексика): широта 22.18 долгота -100.90 высота над уровнем моря 1883 м.

В архиве по умолчанию представлена погода в Сан-Луис-Потоси за последнюю неделю. Архивные данные за месяц целиком и за предыдущие месяцы, начиная с января 2011 года, Вы можете получить, выбрав интересующий диапазон дат из раскрывающегося списка и нажав кнопку "Ввод!".


*Определитесь, кто Вы:
робот инопланетянин человек

Внимание! Время в таблицах - всемирное. Для получения местного времени необходимо прибавить поправку, которая равна -6 ч.

Смотрите также архив погоды в соседних городах и на ближайших метеорологических станциях:

Погода в Рио-Верде (Мексика) (99 км)
Погода в Гуанахуато (Мексика) (135 км)
Погода в Лагос де Морено (Мексика) (140 км)
Погода в Агуаскальентесе (Мексика) (148 км)
Погода в Сакатекасе (Мексика) (177 км)
Погода в Керетаро (Мексика) (185 км)
Погода в Тамуине (Мексика) (221 км)
Погода в Маталапе (Мексика) (236 км)
Погода в Колотлане (Мексика) (244 км)
Погода в Сьюдад-Виктории (Мексика) (250 км)

Пояснения к столбцам:

Ветер - указаны скорость ветра в м/с - средняя за 10 мин, порывы в срок и между сроками (в фигурных скобках) и направление, откуда дует ветер: С - северный, СВ - северо-восточный, В - восточный, ЮВ - юго-восточный, Ю - южный, ЮЗ - юго-западный, З - западный, СЗ - северо-западный.
Видимость - горизонтальная дальность видимости в метрах или километрах. При видимости от 1 до 10 км при отсутствии осадков обычно наблюдается дымка, при ухудшении видимости до 1 км и менее - туман. В сухую погоду видимость может ухудшаться дымом, пылью или мглою.
Явления - указаны атмосферные явления, наблюдавшиеся в срок или в последний час перед сроком; фигурными скобками обозначены явления, наблюдавшиеся между сроками (за 1-3 часа до срока); квадратными скобками обозначены град или гололедные отложения с указанием их диаметра в мм.
Облачность - указаны через наклонную черту общая и нижняя облачность в баллах и высота нижней границы облаков в метрах; квадратными скобками обозначены формы облаков: Ci - перистые, Cs - перисто-слоистые, Cc - перисто-кучевые, Ac - высококучевые, As - высокослоистые, Sc - слоисто-кучевые, Ns - слоисто-дождевые, Cu - кучевые, Cb - кучево-дождевые. Подробнее классификацию облаков см. в Атласе облаков (PDF).
T - Температура воздуха - температура, измеренная на высоте 2 м над землей.
Td - Температура точки росы - температура, при понижении до которой содержащийся в воздухе водяной пар достигнет насыщения.
f - Относительная влажность воздуха - влажноcть воздуха, измеренная на высоте 2 м над землей.
Te - Эффективная температура - температура, которую ощущает одетый по сезону человек в тени. Характеристика душности погоды. При расчете учитывается влияние влажности воздуха и скорости ветра на теплоощущения человека.
Tes - Эффективная температура на солнце - температура, которую ощущает человек, с поправкой на солнечный нагрев. Характеристика знойности погоды. Зависит от высоты солнца над горизонтом, облачности и скорости ветра. Ночью, в пасмурную погоду, а также при ветре 12 м/с и более поправка равна нулю.
P - Атмосферное давление - приведенное к уровню моря атмосферное давление.
Po - Атмосферное давление - измеренное на уровне метеостанции атмосферное давление.
Tmin - Минимальная температура - минимум температуры воздуха на высоте 2 м над землей.
Tmax - Максимальная температура - максимум температуры воздуха на высоте 2 м над землей.
R - Количество осадков - Количество выпавших осадков за период времени, мм. При наведении курсора мыши на число - период времени, за который выпало указанное количество осадков.
R24 - Количество осадков - Количество выпавших осадков за 24 часа, мм.
S - Снежный покров - Высота снежного покрова, см. При наведении курсора мыши на число - состояние снежного покрова и степень покрытия местности в баллах.